EXPRESS AMU-7

Last updated on Mon Jun 22 2026 00:03:07 GMT+0000 (Coordinated Universal Time)

1 50001U 21123A 26172.19072406 -.00000245 00000+0 00000+0 0 9992 2 50001 0.0142 295.5392 0000104 243.6270 303.8834 1.00271181 16589
UTC large
Height (km)
Speed (km/s)
/
Latitude / Longitude
Inclination (degrees)
Orbital Period (minutes)
Azimuth
Elevation
Range (km)
Doppler Factor

Next 0 passes for location: London (51.5072 / 0.1276)

No passes found over London.
EXPRESS AMU-7